QPF
0.00 0.00 0.00 0.00 0.00 0.00 0.00 0.00 0.00 0.00 0.00 0.00 0.00 0.00 0.00 0.00 0.00 0.00 0.00 0.00 0.00 0.00 0.00 0.00 0.00 0.00 0.00 0.00 0.00 0.00 0.00 0.00 0.00 0.00 0.00 0.00 0.00 0.00 0.00 0.00 0.00 0.00 0.00 0.00 0.00 0.00 0.00 0.00 0.00 0.00 0.00 0.00
0.00 0.00 0.00 0.00 0.00 0.00 0.00 0.00 0.00 0.00 0.00 0.00 0.00 0.00 0.00 0.00 0.00 0.00 0.00 0.00 0.00 0.00 0.00 0.00 0.00 0.00 0.00 0.00 0.00 0.00 0.00 0.00 0.00 0.00 0.00 0.00 0.00 0.00 0.00 0.00 0.00 0.00 0.00 0.00 0.00 0.00 0.00 0.00 0.00 0.00 0.00 0.00
0.00 0.00 0.00 0.00 0.00 0.00 0.00 0.00 0.00 0.00 0.00 0.00 0.00 0.00 0.00 0.00 0.00 0.00 0.00 0.00 0.00 0.00 0.00 0.00 0.00 0.00 0.00 0.00 0.00 0.00 0.00 0.00 0.00 0.00 0.00 0.00 0.00 0.00 0.00 0.00 0.00 0.00 0.00 0.00 0.00 0.00 0.00 0.00 0.00 0.00 0.00 0.00
0.00 0.00 0.00 0.00 0.00 0.00 0.00 0.00 0.00 0.00 0.00 0.00 0.00 0.00 0.00 0.00 0.00 0.00 0.00 0.00 0.00 0.00 0.00 0.00 0.00 0.00 0.00 0.00 0.00 0.00 0.00 0.00 0.00 0.00 0.00 0.00 0.00 0.00 0.00 0.00 0.00 0.00 0.00 0.00 0.00 0.00 0.00 0.00 0.00 0.00 0.00 0.00
0.00 0.00 0.00 0.00 0.00 0.00 0.00 0.00 0.00 0.00 0.00 0.00 0.00 0.00 0.00 0.00 0.00 0.00 0.00 0.00 0.00 0.00 0.00 0.00 0.00 0.00 0.00 0.00 0.00 0.00 0.00 0.00 0.00 0.00 0.00 0.00 0.00 0.00 0.00 0.00 0.00 0.00 0.00 0.00 0.00 0.00 0.00 0.00 0.00 0.00 0.00 0.00
0.00 0.00 0.00 0.00 0.00 0.00 0.00 0.00 0.00 0.00 0.00 0.00 0.00 0.00 0.00 0.00 0.00 0.00 0.00 0.00 0.00 0.00 0.00 0.00 0.00 0.00 0.00 0.00 0.00 0.00 0.00 0.00 0.00 0.00 0.00 0.00 0.00 0.00 0.00 0.00 0.00 0.00 0.00 0.00 0.00 0.00 0.00 0.00 0.00 0.00 0.00 0.00
0.00 0.00 0.00 0.00 0.00 0.00 0.00 0.00 0.00 0.00 0.00 0.00 0.00 0.00 0.00 0.00 0.00 0.00 0.00 0.00 0.00 0.00 0.00 0.00 0.00 0.00 0.00 0.00 0.00 0.00 0.00 0.00 0.00 0.00 0.00 0.00 0.00 0.00 0.00 0.00 0.00 0.00 0.00 0.00 0.00 0.00 0.00 0.00 0.00 0.00 0.00 0.00
0.00 0.00 0.00 0.00 0.00 0.00 0.00 0.00 0.00 0.00 0.00 0.00 0.00 0.00 0.00 0.00 0.00 0.00 0.00 0.00 0.00 0.00 0.00 0.00 0.00 0.00 0.00 0.00 0.00 0.00 0.00 0.00 0.00 0.00 0.00 0.00 0.00 0.00 0.00 0.00 0.00 0.00 0.00 0.00 0.00 0.00 0.00 0.00 0.00 0.00 0.00 0.00
0.00 0.00 0.00 0.00 0.00 0.00 0.00 0.00 0.00 0.00 0.00 0.00 0.00 0.00 0.00 0.00 0.00 0.00 0.00 0.00 0.00 0.00 0.00 0.00 0.00 0.00 0.00 0.00 0.00 0.00 0.00 0.00 0.00 0.00 0.00 0.00 0.00 0.00 0.00 0.00 0.00 0.00 0.00 0.00 0.00 0.00 0.00 0.00 0.00 0.00 0.00 0.00
0.00 0.00 0.00 0.00 0.00 0.00 0.00 0.00 0.00 0.00 0.00 0.00 0.00 0.00 0.00 0.00 0.00 0.00 0.00 0.00 0.00 0.00 0.00 0.00 0.00 0.00 0.00 0.00 0.00 0.00 0.00 0.00 0.00 0.00 0.00 0.00 0.00 0.00 0.00 0.00 0.00 0.00 0.00 0.00 0.00 0.00 0.00 0.00 0.00 0.00 0.00 0.00
0.00 0.00 0.00 0.00 0.00 0.00 0.00 0.00 0.00 0.00 0.00 0.00 0.00 0.00 0.00 0.00 0.00 0.00 0.00 0.00 0.00 0.00 0.00 0.00 0.00 0.00 0.00 0.00 0.00 0.00 0.00 0.00 0.00 0.00 0.00 0.00 0.00 0.00 0.00 0.00 0.00 0.00 0.00 0.00 0.00 0.00 0.00 0.00 0.00 0.00 0.00 0.00
0.00 0.00 0.00 0.00 0.00 0.00 0.00 0.00 0.00 0.00 0.00 0.00 0.00 0.00 0.00 0.00 0.00 0.00 0.00 0.00 0.00 0.00 0.00 0.00 0.00 0.00 0.00 0.00 0.00 0.00 0.00 0.00 0.00 0.00 0.00 0.00 0.00 0.00 0.00 0.00 0.00 0.00 0.00 0.00 0.00 0.00 0.00 0.00 0.00 0.00 0.00 0.00
0.00 0.00 0.00 0.00 0.00 0.00 0.00 0.00 0.00 0.00 0.00 0.00 0.00 0.00 0.00 0.00 0.00 0.00 0.00 0.00 0.00 0.00 0.00 0.00 0.00 0.00 0.00 0.00 0.00 0.00 0.00 0.00 0.00 0.00 0.00 0.00 0.00 0.00 0.00 0.00 0.00 0.00 0.00 0.00 0.00 0.00 0.00 0.00 0.00 0.00 0.00 0.00
0.00 0.00 0.00 0.00 0.00 0.00 0.00 0.00 0.00 0.00 0.00 0.00 0.00 0.00 0.00 0.00 0.00 0.00 0.00 0.00 0.00 0.00 0.00 0.00 0.00 0.00 0.00 0.00 0.00 0.00 0.00 0.00 0.00 0.00 0.00 0.00 0.00 0.00 0.00 0.00 0.00 0.00 0.00 0.00 0.00 0.00 0.00 0.00 0.00 0.00 0.00 0.00
0.00 0.00 0.00 0.00 0.00 0.00 0.00 0.00 0.00 0.00 0.00 0.00 0.00 0.00 0.00 0.00 0.00 0.00 0.00 0.00 0.00 0.00 0.00 0.00 0.00 0.00 0.00 0.00 0.00 0.00 0.00 0.00 0.00 0.00 0.00 0.00 0.00 0.00 0.00 0.00 0.00 0.00 0.00 0.00 0.00 0.00 0.00 0.00 0.00 0.00 0.00 0.00
0.00 0.00 0.00 0.00 0.00 0.00 0.00 0.00 0.00 0.00 0.00 0.00 0.00 0.00 0.00 0.00 0.00 0.00 0.00 0.00 0.00 0.00 0.00 0.00 0.00 0.00 0.00 0.00 0.00 0.00 0.00 0.00 0.00 0.00 0.00 0.00 0.00 0.00 0.00 0.00 0.00 0.00 0.00 0.00 0.00 0.00 0.00 0.00 0.00 0.00 0.00 0.00
0.00 0.00 0.00 0.00 0.00 0.00 0.00 0.00 0.00 0.00 0.00 0.00 0.00 0.00 0.00 0.00 0.00 0.00 0.00 0.00 0.00 0.00 0.00 0.00 0.00 0.00 0.00 0.00 0.00 0.00 0.00 0.00 0.00 0.00 0.00 0.00 0.00 0.00 0.00 0.00 0.00 0.00 0.00 0.00 0.00 0.00 0.00 0.00 0.00 0.00 0.00 0.00
0.00 0.00 0.00 0.00 0.00 0.00 0.00 0.00 0.00 0.00 0.00 0.00 0.00 0.00 0.00 0.00 0.00 0.00 0.00 0.00 0.00 0.00 0.00 0.00 0.00 0.00 0.00 0.00 0.00 0.00 0.00 0.00 0.00 0.00 0.00 0.00 0.00 0.00 0.00 0.00 0.00 0.00 0.00 0.00 0.00 0.00 0.00 0.00 0.00 0.00 0.00 0.00
0.00 0.00 0.00 0.00 0.00 0.00 0.00 0.00 0.00 0.00 0.00 0.00 0.00 0.00 0.00 0.00 0.00 0.00 0.00 0.00 0.00 0.00 0.00 0.00 0.00 0.00 0.00 0.00 0.00 0.00 0.00 0.00 0.00 0.00 0.00 0.00 0.00 0.00 0.00 0.00 0.00 0.00 0.00 0.00 0.00 0.00 0.00 0.00 0.00 0.00 0.00 0.00
0.00 0.00 0.00 0.00 0.00 0.00 0.00 0.00 0.00 0.00 0.00 0.00 0.00 0.00 0.00 0.00 0.00 0.00 0.00 0.00 0.00 0.00 0.00 0.00 0.00 0.00 0.00 0.00 0.00 0.00 0.00 0.00 0.00 0.00 0.00 0.00 0.00 0.00 0.00 0.00 0.00 0.00 0.00 0.00 0.00 0.00 0.00 0.00 0.00 0.00 0.00 0.00
0.00 0.00 0.00 0.00 0.00 0.00 0.00 0.00 0.00 0.00 0.00 0.00 0.00 0.00 0.00 0.00 0.00 0.00 0.00 0.00 0.00 0.00 0.00 0.00 0.00 0.00 0.00 0.00 0.00 0.00 0.00 0.00 0.00 0.00 0.00 0.00 0.00 0.00 0.00 0.00 0.00 0.00 0.00 0.00 0.00 0.00 0.00 0.00 0.00 0.00 0.00 0.00
0.00 0.00 0.00 0.00 0.00 0.00 0.00 0.00 0.00 0.00 0.00 0.00 0.00 0.00 0.00 0.00 0.00 0.00 0.00 0.00 0.00 0.00 0.00 0.00 0.00 0.00 0.00 0.00 0.00 0.00 0.00 0.00 0.00 0.00 0.00 0.00 0.00 0.00 0.00 0.00 0.00 0.00 0.00 0.00 0.00 0.00 0.00 0.00 0.00 0.00 0.00 0.00
0.00 0.00 0.00 0.00 0.00 0.00 0.00 0.00 0.00 0.00 0.00 0.00 0.00 0.00 0.00 0.00 0.00 0.00 0.00 0.00 0.00 0.00 0.00 0.00 0.00 0.00 0.00 0.00 0.00 0.00 0.00 0.00 0.00 0.00 0.00 0.00 0.00 0.00 0.00 0.00 0.00 0.00 0.00 0.00 0.00 0.00 0.00 0.00 0.00 0.00 0.00 0.00
0.00 0.00 0.00 0.00 0.00 0.00 0.00 0.00 0.00 0.00 0.00 0.00 0.00 0.00 0.00 0.00 0.00 0.00 0.00 0.00 0.00 0.00 0.00 0.00 0.00 0.00 0.00 0.00 0.00 0.00 0.00 0.00 0.00 0.00 0.00 0.00 0.00 0.00 0.00 0.00 0.00 0.00 0.00 0.00 0.00 0.00 0.00 0.00 0.00 0.00 0.00 0.00
0.00 0.00 0.00 0.00 0.00 0.00 0.00 0.00 0.00 0.00 0.00 0.00 0.00 0.00 0.00 0.00 0.00 0.00 0.00 0.00 0.00 0.00 0.00 0.00 0.00 0.00 0.00 0.00 0.00 0.00 0.00 0.00 0.00 0.00 0.00 0.00 0.00 0.00 0.00 0.00 0.00 0.00 0.00 0.00 0.00 0.00 0.00 0.00 0.00 0.00 0.00 0.00
0.00 0.00 0.00 0.00 0.00 0.00 0.00 0.00 0.00 0.00 0.00 0.00 0.00 0.00 0.00 0.00 0.00 0.00 0.00 0.00 0.00 0.00 0.00 0.00 0.00 0.00 0.00 0.00 0.00 0.00 0.00 0.00 0.00 0.00 0.00 0.00 0.00 0.00 0.00 0.00 0.00 0.00 0.00 0.00 0.00 0.00 0.00 0.00 0.00 0.00 0.00 0.00
0.01 0.01 0.00 0.00 0.00 0.00 0.00 0.00 0.00 0.00 0.00 0.00 0.00 0.00 0.00 0.00 0.00 0.00 0.00 0.00 0.00 0.00 0.00 0.00 0.00 0.00 0.00 0.00 0.00 0.00 0.00 0.00 0.00 0.00 0.00 0.00 0.00 0.00 0.00 0.00 0.00 0.00 0.00 0.00 0.00 0.00 0.00 0.00 0.00 0.00 0.00 0.00
0.00 0.00 0.00 0.00 0.00 0.00 0.00 0.00 0.00 0.00 0.00 0.00 0.00 0.00 0.00 0.00 0.00 0.00 0.00 0.00 0.00 0.00 0.00 0.00 0.00 0.00 0.00 0.00 0.00 0.00 0.00 0.00 0.00 0.00 0.00 0.00 0.00 0.00 0.00 0.00 0.00 0.00 0.00 0.00 0.00 0.00 0.00 0.00 0.00 0.00 0.00 0.00
0.00 0.00 0.00 0.00 0.00 0.00 0.00 0.00 0.00 0.00 0.00 0.00 0.00 0.00 0.00 0.00 0.00 0.00 0.00 0.00 0.00 0.00 0.00 0.00 0.00 0.00 0.00 0.00 0.00 0.00 0.00 0.00 0.00 0.00 0.00 0.00 0.00 0.00 0.00 0.00 0.00 0.00 0.00 0.00 0.00 0.00 0.00 0.00 0.00 0.00 0.00 0.00
0.00 0.00 0.00 0.00 0.00 0.00 0.00 0.00 0.00 0.00 0.00 0.00 0.00 0.00 0.00 0.00 0.00 0.00 0.00 0.00 0.00 0.00 0.00 0.00 0.00 0.00 0.00 0.00 0.00 0.00 0.00 0.00 0.00 0.00 0.00 0.00 0.00 0.00 0.00 0.00 0.00 0.00 0.00 0.00 0.00 0.00 0.00 0.00 0.00 0.00 0.00 0.00
0.00 0.00 0.00 0.00 0.00 0.00 0.00 0.00 0.00 0.00 0.00 0.00 0.00 0.00 0.00 0.00 0.00 0.00 0.00 0.00 0.00 0.00 0.00 0.00 0.00 0.00 0.00 0.00 0.00 0.00 0.00 0.00 0.00 0.00 0.00 0.00 0.00 0.00 0.00 0.00 0.00 0.00 0.00 0.00 0.00 0.00 0.00 0.00 0.00 0.00 0.00 0.00
MSLP
1025.45 1025.61 1025.69 1025.81 1025.93 1026.13 1026.33 1026.53 1026.69 1026.77 1026.85 1026.93 1026.97 1027.05 1027.09 1027.13 1027.13 1027.09 1027.09 1027.01 1027.01 1026.97 1026.97 1026.93 1026.81 1026.73 1026.73 1026.73 1026.73 1026.73 1026.73 1026.69 1026.61 1026.65 1026.65 1026.69 1026.73 1026.73 1026.69 1026.65 1026.57 1026.49 1026.45 1026.29 1026.17 1026.13 1026.13 1026.13 1026.05 1026.01 1025.93 1025.97
1025.81 1025.97 1026.13 1026.29 1026.45 1026.61 1026.73 1026.81 1026.89 1026.97 1027.05 1027.09 1027.17 1027.21 1027.25 1027.29 1027.29 1027.21 1027.17 1027.13 1027.09 1027.09 1027.09 1027.09 1026.97 1026.85 1026.77 1026.73 1026.73 1026.73 1026.77 1026.73 1026.65 1026.65 1026.69 1026.73 1026.77 1026.77 1026.77 1026.73 1026.65 1026.61 1026.57 1026.49 1026.45 1026.29 1026.13 1026.17 1026.21 1026.17 1026.09 1026.09
1026.41 1026.53 1026.69 1026.81 1026.89 1026.97 1026.97 1027.01 1027.05 1027.09 1027.17 1027.25 1027.25 1027.33 1027.33 1027.37 1027.37 1027.33 1027.29 1027.25 1027.13 1027.13 1027.13 1027.13 1027.09 1026.97 1026.81 1026.73 1026.73 1026.73 1026.77 1026.77 1026.77 1026.77 1026.77 1026.81 1026.85 1026.85 1026.81 1026.77 1026.73 1026.73 1026.73 1026.65 1026.57 1026.53 1026.33 1026.21 1026.25 1026.25 1026.33 1026.29
1026.85 1026.85 1026.93 1027.01 1027.05 1027.09 1027.13 1027.17 1027.17 1027.17 1027.25 1027.33 1027.37 1027.37 1027.37 1027.37 1027.45 1027.45 1027.45 1027.33 1027.33 1027.21 1027.17 1027.09 1027.09 1027.01 1026.89 1026.81 1026.73 1026.77 1026.77 1026.81 1026.85 1026.85 1026.85 1026.85 1026.89 1026.85 1026.85 1026.81 1026.77 1026.77 1026.77 1026.69 1026.65 1026.65 1026.53 1026.41 1026.37 1026.45 1026.53 1026.37
1027.01 1027.01 1027.05 1027.09 1027.13 1027.13 1027.17 1027.21 1027.25 1027.25 1027.29 1027.37 1027.41 1027.41 1027.41 1027.41 1027.45 1027.49 1027.49 1027.45 1027.41 1027.25 1027.21 1027.13 1027.09 1027.05 1026.93 1026.85 1026.77 1026.81 1026.85 1026.89 1026.93 1026.93 1026.89 1026.85 1026.85 1026.81 1026.81 1026.81 1026.81 1026.89 1026.81 1026.73 1026.65 1026.65 1026.69 1026.57 1026.69 1026.61 1026.45 1026.33
1027.05 1027.09 1027.13 1027.21 1027.17 1027.17 1027.17 1027.21 1027.29 1027.33 1027.41 1027.45 1027.49 1027.49 1027.49 1027.61 1027.53 1027.49 1027.45 1027.41 1027.41 1027.33 1027.21 1027.17 1027.13 1027.09 1027.01 1026.93 1026.89 1026.89 1026.97 1026.97 1026.97 1026.93 1026.89 1026.85 1026.77 1026.73 1026.73 1026.77 1026.97 1027.05 1026.97 1026.81 1026.73 1026.65 1026.57 1026.65 1026.77 1026.69 1026.49 1026.41
1027.05 1027.13 1027.21 1027.25 1027.17 1027.21 1027.25 1027.29 1027.33 1027.49 1027.61 1027.73 1027.73 1027.77 1027.77 1027.65 1027.53 1027.45 1027.41 1027.41 1027.37 1027.25 1027.21 1027.21 1027.13 1027.09 1027.09 1027.05 1027.05 1027.05 1027.05 1027.01 1026.89 1026.85 1026.77 1026.69 1026.65 1026.65 1026.69 1026.85 1027.01 1027.05 1027.01 1026.93 1026.77 1026.69 1026.73 1026.73 1026.73 1026.57 1026.45 1026.41
1027.25 1027.25 1027.37 1027.29 1027.29 1027.33 1027.41 1027.37 1027.53 1027.73 1027.69 1027.73 1027.77 1027.81 1027.81 1027.77 1027.57 1027.37 1027.41 1027.33 1027.29 1027.25 1027.25 1027.29 1027.21 1027.21 1027.21 1027.25 1027.21 1027.09 1027.05 1027.01 1026.93 1026.85 1026.73 1026.69 1026.65 1026.69 1026.81 1026.89 1026.89 1026.93 1026.81 1026.77 1026.81 1026.81 1026.77 1026.69 1026.65 1026.53 1026.45 1026.37
1027.29 1027.41 1027.45 1027.53 1027.57 1027.57 1027.53 1027.69 1027.81 1027.85 1027.93 1028.05 1028.13 1028.17 1028.09 1028.01 1027.85 1027.77 1027.73 1027.65 1027.65 1027.57 1027.53 1027.45 1027.45 1027.41 1027.33 1027.29 1027.21 1027.09 1027.05 1027.01 1027.05 1026.93 1026.85 1026.85 1026.85 1026.85 1026.81 1026.81 1026.77 1026.69 1026.61 1026.61 1026.65 1026.65 1026.61 1026.61 1026.53 1026.45 1026.37 1026.33
1027.49 1027.57 1027.73 1027.77 1027.77 1027.73 1027.89 1027.93 1028.09 1028.25 1028.33 1028.37 1028.41 1028.37 1028.33 1028.21 1028.21 1028.13 1028.05 1028.01 1027.93 1027.89 1027.81 1027.69 1027.61 1027.45 1027.29 1027.17 1027.13 1027.13 1027.05 1027.05 1027.01 1026.97 1026.89 1026.89 1026.89 1026.85 1026.85 1026.73 1026.61 1026.57 1026.49 1026.45 1026.49 1026.49 1026.49 1026.45 1026.41 1026.33 1026.29 1026.25
1028.01 1028.13 1028.17 1028.17 1028.17 1028.17 1028.37 1028.41 1028.53 1028.65 1028.65 1028.65 1028.65 1028.61 1028.53 1028.49 1028.49 1028.41 1028.29 1028.17 1028.13 1028.05 1027.97 1027.85 1027.81 1027.73 1027.57 1027.45 1027.29 1027.21 1027.17 1027.05 1026.93 1026.81 1026.81 1026.85 1026.81 1026.81 1026.73 1026.65 1026.61 1026.53 1026.49 1026.41 1026.37 1026.33 1026.37 1026.33 1026.29 1026.25 1026.21 1026.13
1028.53 1028.57 1028.53 1028.61 1028.57 1028.65 1028.77 1028.77 1028.93 1029.01 1028.97 1028.93 1028.93 1028.93 1028.85 1028.77 1028.81 1028.77 1028.61 1028.53 1028.41 1028.37 1028.21 1028.17 1028.05 1027.97 1027.81 1027.69 1027.53 1027.41 1027.25 1027.13 1026.97 1026.89 1026.89 1026.89 1026.85 1026.81 1026.77 1026.73 1026.65 1026.61 1026.57 1026.49 1026.41 1026.33 1026.25 1026.25 1026.21 1026.17 1026.13 1026.13
1029.01 1028.97 1028.93 1028.97 1028.97 1029.09 1029.09 1029.21 1029.29 1029.25 1029.21 1029.17 1029.21 1029.17 1029.13 1029.05 1029.05 1029.01 1029.01 1028.93 1028.89 1028.69 1028.57 1028.49 1028.37 1028.25 1028.09 1027.85 1027.65 1027.49 1027.45 1027.45 1027.33 1027.21 1027.13 1027.05 1027.01 1026.97 1026.93 1026.85 1026.73 1026.61 1026.53 1026.49 1026.41 1026.33 1026.21 1026.13 1026.09 1026.05 1026.05 1026.01
1029.49 1029.53 1029.49 1029.49 1029.53 1029.45 1029.37 1029.49 1029.53 1029.45 1029.45 1029.53 1029.49 1029.53 1029.53 1029.49 1029.49 1029.49 1029.45 1029.33 1029.21 1029.13 1029.01 1028.85 1028.69 1028.49 1028.29 1028.05 1027.89 1027.89 1027.81 1027.69 1027.57 1027.45 1027.29 1027.13 1027.05 1027.05 1027.01 1026.89 1026.73 1026.57 1026.49 1026.45 1026.33 1026.25 1026.13 1026.01 1025.97 1025.97 1025.89 1025.85
1029.97 1029.89 1029.89 1029.93 1029.89 1029.85 1029.85 1029.81 1029.73 1029.81 1029.89 1029.93 1029.97 1030.01 1029.97 1029.93 1029.89 1029.85 1029.77 1029.69 1029.65 1029.49 1029.37 1029.21 1029.05 1028.85 1028.65 1028.45 1028.41 1028.25 1028.09 1027.89 1027.81 1027.69 1027.57 1027.49 1027.33 1027.25 1027.13 1027.01 1026.81 1026.61 1026.49 1026.41 1026.33 1026.17 1026.09 1025.93 1025.89 1025.89 1025.81 1025.73
1030.49 1030.41 1030.37 1030.29 1030.25 1030.29 1030.25 1030.17 1030.21 1030.29 1030.33 1030.37 1030.41 1030.37 1030.29 1030.29 1030.33 1030.25 1030.21 1030.09 1030.01 1029.93 1029.81 1029.65 1029.49 1029.25 1029.05 1028.93 1028.73 1028.57 1028.41 1028.21 1028.01 1027.89 1027.73 1027.57 1027.41 1027.29 1027.21 1027.05 1026.85 1026.65 1026.53 1026.41 1026.33 1026.17 1026.05 1025.89 1025.85 1025.77 1025.73 1025.61
1031.29 1031.13 1031.01 1030.85 1030.77 1030.69 1030.57 1030.53 1030.53 1030.65 1030.69 1030.73 1030.69 1030.65 1030.65 1030.65 1030.61 1030.61 1030.53 1030.41 1030.33 1030.21 1030.13 1029.97 1029.77 1029.57 1029.41 1029.29 1029.09 1028.85 1028.61 1028.41 1028.21 1028.01 1027.81 1027.61 1027.45 1027.33 1027.17 1027.01 1026.81 1026.69 1026.65 1026.49 1026.33 1026.21 1026.05 1025.89 1025.73 1025.61 1025.57 1025.53
1031.89 1031.77 1031.61 1031.45 1031.33 1031.21 1031.05 1030.97 1030.93 1031.01 1031.01 1031.01 1031.01 1030.97 1030.93 1030.97 1030.93 1030.89 1030.81 1030.69 1030.57 1030.45 1030.33 1030.21 1030.05 1029.89 1029.69 1029.49 1029.29 1029.05 1028.81 1028.65 1028.49 1028.37 1028.17 1027.97 1027.81 1027.65 1027.53 1027.37 1027.17 1026.97 1026.73 1026.53 1026.33 1026.17 1026.01 1025.89 1025.73 1025.61 1025.49 1025.37
1032.45 1032.25 1032.09 1031.93 1031.77 1031.65 1031.57 1031.45 1031.41 1031.37 1031.33 1031.33 1031.29 1031.21 1031.21 1031.21 1031.21 1031.17 1031.05 1030.93 1030.81 1030.69 1030.57 1030.45 1030.29 1030.09 1029.93 1029.73 1029.49 1029.29 1029.05 1028.89 1028.73 1028.61 1028.49 1028.29 1028.17 1027.97 1027.73 1027.49 1027.29 1027.09 1026.89 1026.69 1026.45 1026.25 1026.01 1025.81 1025.61 1025.45 1025.29 1025.17
1033.01 1032.81 1032.57 1032.37 1032.09 1031.93 1031.85 1031.81 1031.77 1031.69 1031.61 1031.57 1031.49 1031.45 1031.45 1031.41 1031.37 1031.37 1031.25 1031.13 1031.01 1030.97 1030.77 1030.69 1030.53 1030.37 1030.13 1029.89 1029.73 1029.53 1029.29 1029.13 1029.05 1028.93 1028.73 1028.57 1028.45 1028.25 1027.93 1027.65 1027.41 1027.17 1026.97 1026.69 1026.45 1026.17 1026.01 1025.81 1025.61 1025.41 1025.21 1025.05
1033.37 1033.21 1033.01 1032.85 1032.61 1032.41 1032.17 1032.05 1032.01 1032.01 1031.89 1031.77 1031.73 1031.73 1031.69 1031.65 1031.57 1031.53 1031.41 1031.33 1031.25 1031.13 1030.97 1030.81 1030.73 1030.53 1030.33 1030.13 1030.01 1029.81 1029.61 1029.45 1029.33 1029.21 1029.01 1028.77 1028.53 1028.37 1028.17 1027.89 1027.57 1027.29 1027.05 1026.77 1026.45 1026.13 1025.89 1025.65 1025.41 1025.17 1024.93 1024.73
1033.73 1033.53 1033.37 1033.17 1032.93 1032.69 1032.45 1032.29 1032.17 1032.21 1032.09 1032.09 1032.01 1031.89 1031.89 1031.85 1031.77 1031.69 1031.57 1031.45 1031.37 1031.29 1031.09 1030.97 1030.85 1030.69 1030.49 1030.41 1030.25 1030.09 1029.89 1029.77 1029.53 1029.37 1029.21 1028.97 1028.69 1028.45 1028.25 1027.97 1027.73 1027.45 1027.17 1026.85 1026.45 1026.13 1025.85 1025.53 1025.29 1024.97 1024.73 1024.45
1033.97 1033.73 1033.61 1033.45 1033.13 1033.01 1032.77 1032.61 1032.37 1032.33 1032.33 1032.33 1032.21 1032.09 1032.05 1031.97 1031.93 1031.85 1031.73 1031.65 1031.53 1031.41 1031.25 1031.09 1030.97 1030.85 1030.77 1030.69 1030.57 1030.41 1030.25 1030.05 1029.81 1029.65 1029.41 1029.25 1028.93 1028.61 1028.41 1028.17 1027.89 1027.61 1027.25 1026.93 1026.57 1026.25 1025.85 1025.49 1025.13 1024.77 1024.49 1024.21
1034.21 1033.97 1033.77 1033.69 1033.41 1033.25 1033.05 1032.97 1032.73 1032.53 1032.49 1032.45 1032.37 1032.25 1032.17 1032.17 1032.13 1032.05 1031.97 1031.81 1031.69 1031.57 1031.41 1031.29 1031.17 1031.13 1031.05 1030.97 1030.85 1030.73 1030.57 1030.41 1030.17 1029.97 1029.65 1029.45 1029.13 1028.85 1028.49 1028.17 1027.89 1027.61 1027.41 1027.01 1026.61 1026.09 1025.61 1025.25 1024.89 1024.57 1024.21 1023.89
1034.49 1034.37 1034.17 1033.97 1033.93 1033.77 1033.49 1033.29 1032.97 1032.81 1032.53 1032.57 1032.45 1032.37 1032.29 1032.29 1032.21 1032.13 1032.05 1031.89 1031.77 1031.69 1031.53 1031.41 1031.33 1031.29 1031.29 1031.21 1031.13 1031.05 1030.97 1030.69 1030.41 1030.05 1029.89 1029.61 1029.33 1029.01 1028.69 1028.37 1027.97 1027.81 1027.57 1027.29 1026.45 1026.05 1025.73 1025.25 1024.77 1024.25 1023.77 1023.53
1034.89 1034.69 1034.69 1034.45 1034.33 1033.97 1033.77 1033.41 1033.17 1032.97 1032.69 1032.69 1032.61 1032.53 1032.45 1032.37 1032.29 1032.21 1032.09 1031.93 1031.81 1031.69 1031.57 1031.49 1031.49 1031.45 1031.45 1031.37 1031.33 1031.25 1031.09 1030.81 1030.49 1030.25 1030.01 1029.69 1029.45 1029.17 1029.01 1028.73 1028.25 1028.09 1027.73 1027.65 1027.41 1026.93 1025.97 1025.01 1024.37 1023.81 1023.61 1023.33
1035.05 1034.81 1034.69 1034.49 1034.33 1034.05 1033.81 1033.49 1033.25 1033.01 1032.85 1032.73 1032.73 1032.65 1032.57 1032.49 1032.41 1032.25 1032.13 1031.93 1031.81 1031.69 1031.61 1031.65 1031.65 1031.65 1031.57 1031.57 1031.45 1031.37 1031.21 1030.97 1030.73 1030.45 1030.25 1030.01 1029.97 1029.61 1029.21 1028.89 1028.45 1028.29 1028.17 1028.41 1027.65 1027.33 1026.29 1025.57 1024.45 1023.81 1023.37 1023.01
1034.97 1034.81 1034.61 1034.45 1034.21 1034.01 1033.73 1033.49 1033.21 1033.01 1032.85 1032.85 1032.77 1032.77 1032.65 1032.61 1032.49 1032.33 1032.13 1031.97 1031.93 1031.85 1031.77 1031.89 1031.89 1031.81 1031.73 1031.73 1031.61 1031.53 1031.37 1031.13 1030.89 1030.61 1030.41 1030.33 1030.13 1029.89 1029.81 1029.21 1028.89 1028.53 1028.33 1028.21 1027.93 1028.21 1027.05 1026.45 1025.85 1024.97 1023.77 1023.97
1034.97 1034.77 1034.61 1034.37 1034.17 1033.89 1033.61 1033.41 1033.29 1033.09 1033.01 1032.93 1032.93 1032.85 1032.77 1032.69 1032.57 1032.41 1032.21 1032.09 1032.05 1031.93 1031.93 1032.01 1032.01 1031.93 1031.89 1031.81 1031.73 1031.61 1031.49 1031.25 1031.01 1030.73 1030.61 1030.49 1030.29 1030.17 1030.05 1029.65 1029.21 1028.85 1028.53 1028.25 1028.09 1028.33 1027.73 1027.17 1025.77 1025.61 1025.13 1024.81
1034.89 1034.85 1034.65 1034.45 1034.25 1034.05 1033.73 1033.69 1033.41 1033.41 1033.25 1033.17 1033.17 1033.05 1032.85 1032.85 1032.69 1032.53 1032.37 1032.21 1032.13 1032.05 1031.97 1032.09 1032.05 1032.01 1031.97 1031.89 1031.81 1031.73 1031.57 1031.33 1031.05 1030.85 1030.73 1030.57 1030.37 1030.33 1030.09 1029.89 1029.57 1029.33 1028.73 1028.53 1028.25 1028.09 1027.97 1027.73 1027.73 1026.93 1026.29 1025.77
1034.81 1034.85 1034.69 1034.57 1034.45 1034.29 1034.09 1033.85 1033.69 1033.45 1033.37 1033.29 1033.25 1033.05 1033.09 1032.93 1032.85 1032.61 1032.49 1032.37 1032.25 1032.17 1032.13 1032.17 1032.13 1032.09 1032.05 1032.01 1031.97 1031.77 1031.61 1031.41 1031.21 1031.01 1030.89 1030.61 1030.53 1030.45 1030.17 1030.01 1029.93 1029.61 1029.17 1028.57 1028.41 1027.89 1027.65 1027.49 1027.29 1027.13 1026.97 1027.01
Thickness
5571 5569 5568 5567 5566 5564 5562 5560 5559 5558 5558 5558 5557 5557 5557 5557 5557 5558 5558 5559 5560 5560 5561 5561 5562 5562 5562 5562 5562 5562 5563 5563 5564 5565 5565 5566 5565 5566 5567 5568 5570 5571 5572 5574 5576 5577 5579 5580 5581 5583 5584 5585
5564 5562 5560 5559 5557 5555 5554 5553 5552 5552 5551 5551 5551 5550 5550 5551 5551 5552 5551 5552 5553 5553 5553 5553 5554 5554 5555 5556 5556 5556 5557 5557 5558 5558 5558 5558 5559 5559 5560 5561 5562 5564 5565 5567 5568 5570 5572 5573 5574 5575 5577 5579
5556 5554 5552 5551 5549 5548 5547 5546 5546 5545 5545 5545 5545 5544 5544 5544 5545 5545 5544 5545 5546 5547 5547 5547 5547 5548 5549 5549 5550 5550 5550 5551 5551 5551 5551 5551 5551 5552 5553 5554 5555 5556 5558 5559 5560 5562 5564 5566 5567 5568 5569 5571
5549 5547 5545 5544 5543 5542 5541 5540 5539 5539 5539 5538 5538 5538 5538 5539 5539 5538 5537 5538 5539 5541 5540 5541 5541 5541 5542 5543 5544 5544 5544 5544 5544 5544 5544 5544 5544 5545 5546 5547 5548 5549 5550 5552 5553 5554 5556 5558 5559 5561 5562 5564
5542 5540 5540 5538 5536 5536 5535 5534 5533 5533 5532 5532 5532 5531 5532 5532 5532 5532 5531 5532 5532 5533 5534 5535 5535 5535 5536 5536 5536 5537 5537 5536 5536 5537 5537 5537 5537 5538 5539 5540 5541 5542 5542 5544 5545 5547 5548 5549 5551 5553 5555 5557
5536 5534 5534 5532 5531 5530 5529 5529 5528 5527 5526 5525 5525 5524 5525 5525 5525 5526 5527 5525 5526 5526 5527 5528 5528 5528 5528 5528 5528 5528 5529 5529 5529 5529 5530 5531 5531 5532 5532 5532 5533 5534 5535 5536 5537 5539 5540 5542 5543 5545 5547 5549
5529 5527 5527 5526 5525 5524 5523 5522 5521 5520 5519 5518 5518 5517 5517 5518 5518 5520 5520 5519 5519 5520 5519 5520 5520 5520 5520 5520 5520 5520 5521 5521 5522 5523 5524 5524 5524 5525 5525 5525 5525 5526 5528 5528 5530 5531 5532 5534 5535 5537 5539 5541
5522 5520 5520 5518 5517 5517 5515 5515 5514 5513 5512 5511 5510 5509 5509 5510 5511 5512 5512 5512 5511 5512 5512 5511 5512 5511 5511 5511 5512 5512 5513 5514 5515 5516 5516 5517 5517 5518 5518 5518 5518 5519 5521 5521 5523 5524 5525 5526 5528 5530 5531 5533
5514 5514 5512 5510 5509 5508 5507 5506 5506 5505 5504 5502 5501 5500 5500 5500 5501 5503 5503 5503 5503 5502 5502 5502 5502 5502 5502 5503 5504 5505 5506 5507 5508 5508 5509 5510 5510 5510 5511 5511 5512 5512 5513 5515 5516 5516 5518 5519 5521 5522 5524 5525
5507 5505 5503 5501 5500 5498 5498 5497 5497 5496 5494 5491 5490 5489 5490 5491 5492 5493 5494 5493 5493 5493 5493 5493 5493 5493 5494 5496 5496 5497 5498 5499 5500 5500 5501 5501 5501 5502 5503 5504 5505 5506 5507 5508 5508 5510 5511 5512 5514 5515 5517 5519
5497 5495 5492 5490 5489 5487 5486 5486 5486 5485 5483 5480 5479 5480 5480 5481 5483 5483 5483 5484 5484 5484 5484 5484 5484 5484 5485 5486 5487 5487 5488 5490 5491 5492 5492 5492 5493 5494 5495 5496 5497 5498 5499 5500 5502 5503 5504 5505 5507 5508 5509 5511
5485 5482 5480 5478 5477 5475 5474 5474 5474 5473 5473 5471 5470 5470 5470 5471 5472 5473 5473 5473 5474 5474 5474 5473 5474 5474 5475 5475 5477 5478 5479 5481 5481 5482 5482 5483 5485 5486 5486 5488 5489 5491 5492 5493 5495 5496 5498 5499 5500 5501 5502 5504
5472 5469 5467 5465 5464 5463 5463 5463 5463 5464 5464 5463 5461 5461 5460 5461 5461 5461 5461 5462 5462 5462 5463 5462 5463 5463 5464 5465 5467 5469 5470 5470 5470 5470 5471 5473 5475 5476 5477 5478 5480 5482 5483 5485 5487 5488 5490 5491 5493 5495 5496 5496
5458 5457 5455 5453 5452 5452 5452 5452 5452 5453 5453 5453 5452 5449 5448 5448 5449 5449 5448 5449 5450 5450 5451 5451 5451 5452 5453 5455 5457 5458 5459 5459 5459 5460 5461 5463 5465 5466 5468 5469 5471 5473 5475 5477 5478 5480 5482 5484 5485 5487 5488 5490
5445 5444 5443 5441 5440 5440 5439 5440 5440 5440 5441 5440 5439 5436 5436 5436 5436 5436 5436 5436 5437 5437 5438 5439 5440 5440 5441 5443 5445 5446 5446 5447 5448 5449 5450 5452 5454 5455 5457 5459 5461 5464 5466 5467 5469 5471 5474 5475 5477 5478 5479 5481
5431 5430 5429 5429 5428 5427 5426 5426 5426 5426 5428 5427 5424 5423 5424 5424 5424 5423 5423 5423 5424 5424 5425 5426 5427 5427 5430 5432 5433 5434 5434 5436 5437 5439 5440 5441 5444 5445 5448 5449 5451 5453 5456 5458 5460 5462 5465 5466 5469 5470 5472 5474
5417 5416 5416 5416 5415 5415 5415 5414 5414 5414 5415 5415 5413 5412 5412 5412 5413 5411 5410 5411 5411 5412 5413 5413 5414 5415 5418 5420 5421 5421 5422 5424 5426 5427 5429 5430 5432 5435 5437 5439 5441 5443 5446 5448 5450 5452 5455 5457 5460 5461 5464 5465
5403 5403 5402 5402 5403 5402 5401 5402 5402 5402 5403 5403 5401 5401 5399 5400 5400 5398 5398 5399 5400 5399 5400 5402 5402 5403 5405 5408 5408 5409 5410 5412 5413 5415 5416 5419 5421 5423 5425 5426 5429 5432 5435 5438 5440 5443 5445 5448 5450 5452 5455 5457
5390 5390 5389 5390 5390 5390 5389 5389 5389 5390 5390 5390 5389 5388 5387 5388 5387 5385 5385 5387 5388 5387 5387 5389 5389 5391 5393 5395 5396 5397 5397 5399 5400 5401 5404 5406 5408 5410 5412 5415 5418 5420 5424 5427 5430 5432 5435 5438 5440 5443 5446 5448
5377 5377 5377 5377 5377 5377 5376 5376 5376 5377 5377 5377 5375 5375 5374 5374 5374 5373 5372 5374 5374 5373 5374 5376 5376 5378 5381 5383 5384 5384 5385 5385 5386 5388 5391 5393 5395 5398 5400 5403 5406 5409 5412 5415 5418 5422 5425 5428 5430 5433 5436 5438
5365 5364 5364 5364 5364 5364 5364 5364 5364 5364 5365 5364 5363 5362 5361 5362 5362 5360 5360 5361 5362 5361 5362 5363 5364 5365 5367 5370 5371 5371 5371 5372 5373 5376 5378 5380 5382 5385 5388 5391 5394 5396 5399 5403 5407 5411 5415 5417 5421 5424 5427 5430
5353 5352 5352 5352 5351 5351 5351 5351 5351 5352 5352 5351 5350 5349 5349 5349 5349 5348 5348 5348 5349 5349 5349 5351 5352 5353 5355 5357 5357 5357 5358 5359 5361 5363 5365 5368 5370 5372 5375 5378 5381 5383 5386 5390 5396 5401 5404 5407 5410 5414 5418 5421
5342 5341 5340 5340 5339 5338 5338 5338 5338 5339 5339 5338 5337 5336 5336 5336 5336 5335 5335 5335 5336 5337 5337 5338 5339 5341 5342 5342 5343 5344 5345 5346 5348 5349 5352 5355 5357 5360 5363 5366 5368 5371 5374 5378 5384 5389 5394 5398 5401 5405 5408 5412
5330 5330 5329 5328 5327 5326 5325 5324 5324 5324 5325 5325 5324 5323 5323 5323 5322 5322 5322 5322 5323 5323 5324 5326 5327 5328 5328 5328 5329 5330 5331 5332 5334 5336 5338 5340 5344 5348 5351 5354 5356 5357 5361 5367 5373 5379 5384 5387 5391 5395 5400 5403
5319 5318 5317 5315 5314 5313 5312 5311 5311 5311 5311 5311 5311 5310 5309 5309 5309 5309 5310 5310 5310 5311 5311 5313 5314 5315 5315 5314 5315 5316 5317 5319 5320 5322 5325 5328 5332 5335 5339 5341 5342 5343 5348 5355 5361 5366 5372 5377 5381 5387 5391 5395
5306 5305 5304 5303 5302 5301 5300 5300 5299 5299 5299 5299 5298 5298 5296 5296 5296 5296 5297 5297 5298 5299 5299 5301 5302 5303 5302 5300 5301 5302 5304 5306 5308 5309 5312 5316 5319 5322 5325 5328 5329 5330 5333 5338 5344 5350 5359 5368 5373 5378 5382 5385
5296 5294 5293 5291 5290 5290 5290 5289 5289 5288 5289 5288 5287 5286 5284 5285 5284 5284 5285 5285 5285 5286 5287 5288 5290 5290 5289 5287 5287 5289 5291 5293 5295 5296 5300 5303 5305 5308 5311 5315 5317 5318 5318 5322 5327 5333 5343 5353 5359 5366 5371 5374
5286 5285 5283 5282 5281 5280 5280 5280 5279 5278 5279 5277 5276 5275 5274 5273 5272 5272 5274 5273 5273 5273 5274 5276 5277 5277 5276 5273 5274 5276 5279 5280 5281 5284 5287 5288 5290 5294 5298 5301 5304 5305 5306 5308 5313 5317 5326 5336 5342 5350 5356 5360
5277 5276 5274 5273 5272 5271 5271 5269 5268 5268 5267 5267 5264 5264 5263 5261 5260 5261 5261 5261 5261 5261 5262 5264 5264 5264 5263 5261 5261 5263 5266 5268 5269 5271 5273 5274 5277 5280 5283 5287 5292 5293 5294 5295 5299 5301 5307 5316 5323 5332 5339 5343
5268 5266 5264 5263 5262 5261 5261 5259 5257 5256 5256 5254 5252 5252 5252 5249 5248 5249 5249 5249 5248 5249 5250 5251 5252 5252 5250 5249 5249 5251 5252 5254 5257 5259 5261 5262 5264 5266 5268 5273 5278 5281 5282 5283 5286 5288 5293 5298 5303 5312 5319 5322
5259 5257 5255 5252 5251 5250 5249 5248 5247 5246 5244 5243 5241 5240 5240 5237 5237 5236 5237 5237 5236 5236 5237 5239 5240 5239 5237 5236 5237 5238 5240 5242 5244 5245 5247 5248 5251 5253 5255 5258 5262 5267 5270 5272 5275 5277 5282 5287 5289 5296 5301 5304